Three Rivers, MI

1:53 AM EDT on September 26, 2017 (GMT -0400)
Three Rivers Municipal-Haines

Weather History for KHAI - December, 2013

Change the Weather History Date:

Friday, December 6, 2013

  Actual Average Record
Temperature  
Mean Temperature 26 °F -  
Max Temperature 29 °F 38 °F 60 °F (1951)
Min Temperature 24 °F 24 °F 9 °F (1964)
Degree Days  
Heating Degree Days 38    
Moisture  
Dew Point 18 °F    
Average Humidity 69    
Maximum Humidity 73    
Minimum Humidity 63    
Precipitation  
Precipitation 0.00 in - - ()
Sea Level Pressure  
Sea Level Pressure 30.27 in    
Wind  
Wind Speed 9 mph (NW)    
Max Wind Speed 12 mph    
Max Gust Speed 12 mph    
Visibility 10 miles    
Events Snow    
Averages and records for this station are not official NWS values.
T = Trace of Precipitation, MM = Missing Value Source: NWS Daily Summary

Daily Weather History Graph

Daily Weather History Graph

Search for Another Location

Airport or City:

Trip Planner

Search our weather history database for the weather conditions in past years. The results will help you decide how hot, cold, wet, or windy it might be!

Date:

Astronomy

Dec. 06, 2013 Rise Set
Actual Time 7:55 AM EST 5:11 PM EST
Civil Twilight 7:24 AM EST 5:42 PM EST
Nautical Twilight 6:49 AM EST 6:17 PM EST
Astronomical Twilight 6:15 AM EST 6:51 PM EST
Moon 10:58 AM EST (12/6) 9:44 PM EST (12/6)
Length of Visible Light 10h 17m
Length of Day
9h 15m
Waxing Crescent, 19% of the Moon is Illuminated
Dec 6
Waxing Crescent
Dec 9
First Quarter
Dec 17
Full
Dec 25
Last Quarter
Jan 1
New

Hourly Weather History & Observations

Time (EST) Temp. Windchill Dew Point Humidity Pressure Visibility Wind Dir Wind Speed Gust Speed Precip Events Conditions
12:15 AM 29.8 °F 21.5 °F 21.6 °F 71% 30.17 in 10.0 mi WNW 9.2 mph - N/A   Overcast
12:34 AM 29.8 °F 21.5 °F 21.7 °F 72% 30.18 in 10.0 mi WNW 9.2 mph - N/A   Overcast
12:55 AM 29.8 °F 20.9 °F 21.9 °F 72% 30.18 in 10.0 mi WNW 10.4 mph - N/A   Overcast
1:15 AM 29.7 °F 20.7 °F 21.4 °F 71% 30.17 in 10.0 mi WNW 10.4 mph - N/A   Overcast
1:34 AM 29.3 °F 20.2 °F 21.4 °F 72% 30.17 in 10.0 mi WNW 10.4 mph - N/A   Mostly Cloudy
1:55 AM 29.3 °F 20.8 °F 21.4 °F 72% 30.16 in 10.0 mi WNW 9.2 mph - N/A   Scattered Clouds
2:15 AM 29.3 °F 21.5 °F 21.4 °F 72% 30.16 in 10.0 mi WNW 8.1 mph - N/A   Mostly Cloudy
2:34 AM 29.5 °F 21.8 °F 21.7 °F 73% 30.17 in 10.0 mi NW 8.1 mph - N/A   Overcast
2:55 AM 29.7 °F 22.0 °F 21.7 °F 72% 30.17 in 10.0 mi NW 8.1 mph - N/A   Overcast
3:15 AM 29.3 °F 20.2 °F 20.3 °F 69% 30.18 in 10.0 mi NW 10.4 mph - N/A   Overcast
3:34 AM 29.3 °F 21.5 °F 20.1 °F 69% 30.18 in 10.0 mi NW 8.1 mph - N/A   Overcast
3:55 AM 28.9 °F 19.8 °F 19.8 °F 69% 30.19 in 10.0 mi NW 10.4 mph - N/A   Mostly Cloudy
4:15 AM 28.8 °F 20.2 °F 19.8 °F 69% 30.19 in 10.0 mi NW 9.2 mph - N/A   Scattered Clouds
4:35 AM 28.9 °F 22.8 °F 20.1 °F 70% 30.20 in 10.0 mi NW 5.8 mph - N/A   Overcast
4:55 AM 28.8 °F 20.2 °F 20.3 °F 71% 30.20 in 10.0 mi NW 9.2 mph - N/A   Overcast
5:14 AM 28.8 °F 20.9 °F 20.5 °F 71% 30.21 in 10.0 mi WNW 8.1 mph - N/A   Overcast
5:35 AM 28.6 °F 19.9 °F 20.5 °F 72% 30.21 in 10.0 mi WNW 9.2 mph - N/A   Overcast
5:55 AM 28.4 °F 21.2 °F 20.5 °F 72% 30.21 in 10.0 mi NW 6.9 mph - N/A   Overcast
6:14 AM 28.4 °F 22.2 °F 20.3 °F 72% 30.22 in 10.0 mi NNW 5.8 mph - N/A   Overcast
6:35 AM 28.4 °F 19.7 °F 20.3 °F 72% 30.22 in 10.0 mi NNW 9.2 mph - N/A   Overcast
6:55 AM 28.4 °F 19.7 °F 19.9 °F 71% 30.22 in 10.0 mi NNW 9.2 mph - N/A   Overcast
7:14 AM 28.2 °F 21.0 °F 19.4 °F 70% 30.23 in 10.0 mi NW 6.9 mph - N/A   Overcast
7:35 AM 28.0 °F 19.3 °F 19.4 °F 70% 30.24 in 10.0 mi NW 9.2 mph - N/A   Overcast
7:55 AM 27.9 °F 19.8 °F 19.4 °F 71% 30.24 in 10.0 mi NW 8.1 mph - N/A   Overcast
8:14 AM 27.9 °F 19.1 °F 19.6 °F 71% 30.26 in 10.0 mi NW 9.2 mph - N/A   Overcast
8:35 AM 27.9 °F 20.6 °F 19.0 °F 69% 30.26 in 10.0 mi NW 6.9 mph - N/A   Overcast
8:55 AM 28.0 °F 21.7 °F 19.2 °F 70% 30.26 in 10.0 mi NW 5.8 mph - N/A   Overcast
9:15 AM 28.2 °F 20.2 °F 19.2 °F 69% 30.27 in 10.0 mi NW 8.1 mph - N/A   Overcast
9:35 AM 27.7 °F 23.8 °F 19.4 °F 71% 30.25 in 10.0 mi North 3.5 mph - N/A   Overcast
9:54 AM 27.5 °F 21.1 °F 19.2 °F 71% 30.27 in 10.0 mi North 5.8 mph - N/A   Overcast
10:15 AM 27.5 °F 21.1 °F 19.2 °F 71% 30.28 in 10.0 mi NW 5.8 mph - N/A   Overcast
10:35 AM 27.5 °F 20.2 °F 18.9 °F 70% 30.29 in 10.0 mi NW 6.9 mph - N/A   Overcast
10:55 AM 27.9 °F 17.8 °F 18.9 °F 69% 30.30 in 10.0 mi WNW 11.5 mph - N/A   Overcast
11:15 AM 27.5 °F 18.6 °F 18.7 °F 69% 30.31 in 10.0 mi NW 9.2 mph - N/A   Overcast
11:34 AM 27.5 °F 18.0 °F 18.7 °F 69% 30.30 in 10.0 mi NW 10.4 mph - N/A   Overcast
11:55 AM 27.5 °F 20.2 °F 18.3 °F 68% 30.28 in 10.0 mi NW 6.9 mph 11.5 mph N/A   Overcast
12:15 PM 27.5 °F 19.3 °F 17.6 °F 66% 30.29 in 10.0 mi WNW 8.1 mph - N/A   Overcast
12:34 PM 27.5 °F 17.4 °F 18.0 °F 67% 30.29 in 10.0 mi NW 11.5 mph - N/A   Overcast
12:55 PM 27.9 °F 19.1 °F 17.8 °F 66% 30.29 in 10.0 mi NNW 9.2 mph - N/A   Overcast
1:14 PM 27.5 °F 18.6 °F 17.6 °F 66% 30.26 in 10.0 mi NW 9.2 mph - N/A   Overcast
1:35 PM 27.9 °F 19.8 °F 18.0 °F 66% 30.27 in 10.0 mi NNW 8.1 mph - N/A   Overcast
1:54 PM 27.5 °F 20.2 °F 18.0 °F 67% 30.27 in 10.0 mi NW 6.9 mph - N/A   Overcast
2:15 PM 27.3 °F 18.4 °F 17.2 °F 66% 30.27 in 10.0 mi NW 9.2 mph - N/A   Overcast
2:35 PM 27.1 °F 21.8 °F 18.1 °F 69% 30.27 in 10.0 mi NNW 4.6 mph - N/A   Overcast
2:54 PM 27.0 °F 17.3 °F 16.9 °F 66% 30.27 in 10.0 mi NW 10.4 mph - N/A   Overcast
3:15 PM 27.0 °F 19.5 °F 17.2 °F 67% 30.27 in 10.0 mi NW 6.9 mph - N/A   Overcast
3:35 PM 26.6 °F 17.5 °F 16.5 °F 66% 30.29 in 10.0 mi NW 9.2 mph - N/A   Overcast
3:54 PM 26.6 °F 16.8 °F 16.7 °F 66% 30.27 in 10.0 mi WNW 10.4 mph - N/A   Overcast
4:15 PM 26.6 °F 16.8 °F 17.1 °F 67% 30.28 in 10.0 mi NW 10.4 mph - N/A   Overcast
4:34 PM 26.2 °F 17.8 °F 16.9 °F 68% 30.29 in 10.0 mi NNW 8.1 mph - N/A   Mostly Cloudy
4:55 PM 25.9 °F 16.6 °F 16.5 °F 68% 30.30 in 10.0 mi NW 9.2 mph - N/A   Mostly Cloudy
5:15 PM 25.7 °F 18.0 °F 16.5 °F 68% 30.29 in 10.0 mi NW 6.9 mph - N/A   Overcast
5:34 PM 25.7 °F 18.0 °F 16.7 °F 69% 30.30 in 10.0 mi NW 6.9 mph - N/A   Overcast
5:55 PM 25.7 °F 16.4 °F 17.1 °F 70% 30.32 in 10.0 mi NW 9.2 mph - N/A   Overcast
6:15 PM 25.5 °F 17.8 °F 17.1 °F 70% 30.32 in 10.0 mi NW 6.9 mph - N/A   Overcast
6:34 PM 25.5 °F 17.8 °F 17.2 °F 71% 30.31 in 10.0 mi NW 6.9 mph - N/A   Overcast
6:55 PM 25.3 °F 17.6 °F 16.7 °F 70% 30.33 in 10.0 mi NNW 6.9 mph - N/A   Overcast
7:15 PM 25.3 °F 16.7 °F 16.7 °F 70% 30.35 in 10.0 mi NW 8.1 mph - N/A   Overcast
7:34 PM 25.0 °F 16.3 °F 16.3 °F 70% 30.35 in 10.0 mi NW 8.1 mph - N/A   Overcast
7:55 PM 24.8 °F 16.1 °F 15.3 °F 67% 30.34 in 10.0 mi NW 8.1 mph - N/A   Overcast
8:15 PM 24.8 °F 16.1 °F 16.2 °F 70% 30.34 in 10.0 mi NW 8.1 mph - N/A   Overcast
8:34 PM 24.8 °F 16.9 °F 15.4 °F 68% 30.35 in 10.0 mi NNW 6.9 mph - N/A   Overcast
8:55 PM 24.8 °F 15.3 °F 14.4 °F 65% 30.35 in 10.0 mi WNW 9.2 mph - N/A   Overcast
9:15 PM 24.6 °F 15.1 °F 13.6 °F 63% 30.37 in 10.0 mi WNW 9.2 mph - N/A   Overcast
9:34 PM 24.4 °F 15.6 °F 13.3 °F 63% 30.37 in 10.0 mi NW 8.1 mph - N/A   Overcast
9:55 PM 24.6 °F 15.8 °F 14.0 °F 64% 30.37 in 10.0 mi NW 8.1 mph - N/A   Overcast
10:14 PM 24.4 °F 14.9 °F 13.5 °F 63% 30.38 in 10.0 mi NW 9.2 mph - N/A   Overcast
10:35 PM 24.4 °F 16.5 °F 14.7 °F 67% 30.39 in 10.0 mi WNW 6.9 mph - N/A Snow Light Snow
10:55 PM 24.3 °F 17.3 °F 14.9 °F 68% 30.39 in 10.0 mi NW 5.8 mph - N/A   Overcast
11:15 PM 24.3 °F 17.3 °F 15.3 °F 69% 30.40 in 10.0 mi NW 5.8 mph - N/A   Overcast
11:35 PM 24.4 °F 16.5 °F 15.6 °F 69% 30.40 in 10.0 mi WNW 6.9 mph - N/A   Overcast
11:54 PM 24.4 °F 18.6 °F 15.8 °F 70% 30.40 in 10.0 mi WNW 4.6 mph - N/A Snow Light Snow